| time (UTC) | temp C | wind direction | speed KPH | gust KPH | rain 1hr cm | rain 24hr cm | rain mn cm | humidity % | barometer mb |
| 20260906190318 | 23 | 108 | 6.4 | 11.3 | 0.00 | 0.00 | 0.00 | 75 | 1021.0 |
| 20260906184825 | 23 | 120 | 4.8 | 9.7 | 0.00 | 0.00 | 0.00 | 75 | 1021.2 |
| 20260906183323 | 23 | 94 | 3.2 | 12.9 | 0.00 | 0.00 | 0.00 | 74 | 1021.2 |
| 20260906181816 | 23 | 167 | 6.4 | 12.9 | 0.00 | 0.00 | 0.00 | 76 | 1021.3 |
| 20260906180313 | 23 | 110 | 6.4 | 16.1 | 0.00 | 0.00 | 0.00 | 75 | 1021.4 |
| 20260906174823 | 23 | 137 | 4.8 | 8.0 | 0.00 | 0.00 | 0.00 | 76 | 1021.5 |
| 20260906173321 | 23 | 108 | 1.6 | 11.3 | 0.00 | 0.00 | 0.00 | 75 | 1021.5 |
| 20260906171833 | 22 | 143 | 4.8 | 12.9 | 0.00 | 0.00 | 0.00 | 75 | 1021.4 |
| 20260906170328 | 23 | 103 | 4.8 | 11.3 | 0.00 | 0.00 | 0.00 | 75 | 1021.5 |
| 20260906164841 | 22 | 120 | 3.2 | 17.7 | 0.00 | 0.00 | 0.00 | 77 | 1021.4 |
| 20260906163332 | 22 | 140 | 4.8 | 9.7 | 0.00 | 0.00 | 0.00 | 78 | 1021.6 |
| 20260906161831 | 21 | 129 | 3.2 | 9.7 | 0.00 | 0.00 | 0.00 | 80 | 1021.6 |
| 20260906160326 | 21 | 114 | 4.8 | 9.7 | 0.00 | 0.00 | 0.00 | 80 | 1021.6 |
| 20260906154815 | 21 | 126 | 1.6 | 9.7 | 0.00 | 0.00 | 0.00 | 80 | 1021.6 |
| 20260906153328 | 20 | 110 | 6.4 | 9.7 | 0.00 | 0.00 | 0.00 | 80 | 1021.6 |
| 20260906151840 | 20 | 101 | 6.4 | 11.3 | 0.00 | 0.00 | 0.00 | 80 | 1021.7 |
| 20260906150316 | 20 | 116 | 4.8 | 9.7 | 0.00 | 0.00 | 0.00 | 79 | 1021.8 |
| 20260906144823 | 20 | 141 | 3.2 | 4.8 | 0.00 | 0.00 | 0.00 | 82 | 1021.6 |
| 20260906143321 | 19 | 114 | 3.2 | 8.0 | 0.00 | 0.00 | 0.00 | 82 | 1021.5 |
| 20260906141815 | 18 | 101 | 3.2 | 6.4 | 0.00 | 0.00 | 0.00 | 84 | 1021.6 |
| 20260906140328 | 17 | 105 | 3.2 | 6.4 | 0.00 | 0.00 | 0.00 | 85 | 1022.0 |
| 20260906134819 | 17 | 114 | 3.2 | 4.8 | 0.00 | 0.00 | 0.00 | 91 | 1022.0 |
| 20260906133314 | 16 | 96 | 3.2 | 6.4 | 0.00 | 0.00 | 0.00 | 97 | 1022.0 |
| 20260906131853 | 16 | 86 | 3.2 | 6.4 | 0.00 | 0.00 | 0.00 | 99 | 1021.9 |
| 20260906130327 | 15 | 121 | 1.6 | 6.4 | 0.00 | 0.00 | 0.00 | 99 | 1021.7 |
| 20260906124820 | 15 | 91 | 1.6 | 4.8 | 0.00 | 0.00 | 0.00 | 99 | 1021.5 |
| 20260906123338 | 15 | 100 | 0.0 | 3.2 | 0.00 | 0.00 | 0.00 | 99 | 1021.6 |
| 20260906121815 | 15 | 95 | 0.0 | 1.6 | 0.00 | 0.00 | 0.00 | 99 | 1021.5 |
| 20260906120320 | 15 | 103 | 0.0 | 1.6 | 0.00 | 0.00 | 0.00 | 99 | 1021.4 |
| 20260906114813 | 15 | 84 | 0.0 | 4.8 | 0.00 | 0.00 | 0.00 | 99 | 1021.2 |
| 20260906113313 | 15 | 109 | 0.0 | 0.0 | 0.00 | 0.00 | 0.00 | 99 | 1021.2 |
| 20260906111831 | 14 | 109 | 0.0 | 1.6 | 0.00 | 0.00 | 0.00 | 99 | 1021.1 |
| 20260906110329 | 15 | 89 | 0.0 | 1.6 | 0.00 | 0.00 | 0.00 | 99 | 1021.0 |
| 20260906104817 | 15 | 94 | 0.0 | 3.2 | 0.00 | 0.00 | 0.00 | 99 | 1020.9 |
| 20260906103314 | 15 | 115 | 0.0 | 1.6 | 0.00 | 0.00 | 0.00 | 99 | 1020.9 |
| 20260906101830 | 15 | 109 | 0.0 | 1.6 | 0.00 | 0.00 | 0.00 | 99 | 1020.9 |
| 20260906100323 | 15 | 128 | 0.0 | 1.6 | 0.00 | 0.00 | 0.00 | 99 | 1020.8 |
| 20260906094819 | 15 | 138 | 0.0 | 1.6 | 0.00 | 0.00 | 0.00 | 99 | 1020.9 |
| 20260906093335 | 14 | 90 | 0.0 | 0.0 | 0.00 | 0.00 | 0.00 | 98 | 1020.8 |
| 20260906091833 | 14 | 127 | 0.0 | 0.0 | 0.00 | 0.00 | 0.00 | 98 | 1020.8 |
| 20260906090328 | 14 | 131 | 0.0 | 0.0 | 0.00 | 0.00 | 0.00 | 98 | 1020.8 |
| 20260906084837 | 13 | 131 | 0.0 | 0.0 | 0.00 | 0.00 | 0.00 | 97 | 1020.9 |
| 20260906083354 | 13 | 131 | 0.0 | 0.0 | 0.00 | 0.00 | 0.00 | 97 | 1020.8 |
| 20260906081830 | 14 | 131 | 0.0 | 0.0 | 0.00 | 0.00 | 0.00 | 97 | 1020.7 |
| 20260906080314 | 14 | 131 | 0.0 | 0.0 | 0.00 | 0.00 | 0.00 | 97 | 1020.5 |
| 20260906074826 | 13 | 131 | 0.0 | 0.0 | 0.00 | 0.00 | 0.00 | 96 | 1020.5 |
| 20260906073324 | 13 | 131 | 0.0 | 0.0 | 0.00 | 0.00 | 0.00 | 96 | 1020.6 |
| 20260906071836 | 13 | 130 | 0.0 | 0.0 | 0.00 | 0.00 | 0.00 | 97 | 1020.6 |
| 20260906070330 | 13 | 130 | 0.0 | 0.0 | 0.00 | 0.00 | 0.00 | 96 | 1020.6 |
| 20260906064823 | 13 | 130 | 0.0 | 0.0 | 0.00 | 0.00 | 0.00 | 96 | 1020.6 |
| 20260906063316 | 13 | 131 | 0.0 | 0.0 | 0.00 | 0.00 | 0.00 | 96 | 1020.5 |
| 20260906061814 | 13 | 131 | 0.0 | 0.0 | 0.00 | 0.00 | 0.00 | 95 | 1020.5 |
| 20260906060349 | 14 | 131 | 0.0 | 0.0 | 0.00 | 0.00 | 0.00 | 95 | 1020.4 |
| 20260906054819 | 14 | 131 | 0.0 | 0.0 | 0.00 | 0.00 | 0.00 | 95 | 1020.3 |
| 20260906053318 | 15 | 130 | 0.0 | 0.0 | 0.00 | 0.00 | 0.00 | 95 | 1020.2 |
| 20260906051832 | 15 | 130 | 0.0 | 0.0 | 0.00 | 0.00 | 0.00 | 95 | 1020.1 |
| 20260906050330 | 16 | 131 | 0.0 | 1.6 | 0.00 | 0.00 | 0.00 | 94 | 1020.2 |
| 20260906044841 | 16 | 131 | 0.0 | 1.6 | 0.00 | 0.00 | 0.00 | 95 | 1020.1 |
| 20260906043317 | 16 | 130 | 0.0 | 1.6 | 0.00 | 0.00 | 0.00 | 97 | 1020.0 |
| 20260906041813 | 16 | 134 | 0.0 | 0.0 | 0.00 | 0.00 | 0.00 | 98 | 1020.1 |
| 20260906040327 | 16 | 129 | 0.0 | 1.6 | 0.00 | 0.00 | 0.00 | 98 | 1020.0 |
| 20260906034821 | 16 | 121 | 0.0 | 3.2 | 0.00 | 0.00 | 0.00 | 98 | 1020.0 |
| 20260906033336 | 16 | 113 | 0.0 | 1.6 | 0.00 | 0.00 | 0.00 | 97 | 1019.8 |
| 20260906031814 | 16 | 128 | 0.0 | 3.2 | 0.00 | 0.00 | 0.00 | 97 | 1019.8 |
| 20260906030326 | 16 | 104 | 0.0 | 1.6 | 0.00 | 0.00 | 0.00 | 96 | 1019.8 |
| 20260906024821 | 16 | 89 | 0.0 | 3.2 | 0.00 | 0.00 | 0.00 | 95 | 1019.8 |
| 20260906023314 | 16 | 104 | 1.6 | 3.2 | 0.00 | 0.00 | 0.00 | 93 | 1019.7 |
| 20260906021829 | 16 | 91 | 1.6 | 3.2 | 0.00 | 0.00 | 0.00 | 92 | 1019.6 |
| 20260906020325 | 16 | 83 | 0.0 | 1.6 | 0.00 | 0.00 | 0.00 | 90 | 1019.7 |
| 20260906014851 | 16 | 85 | 1.6 | 3.2 | 0.00 | 0.00 | 0.00 | 89 | 1019.7 |
| 20260906013328 | 17 | 98 | 1.6 | 4.8 | 0.00 | 0.00 | 0.00 | 87 | 1019.6 |
| 20260906011820 | 17 | 108 | 1.6 | 3.2 | 0.00 | 0.00 | 0.00 | 87 | 1019.5 |
| 20260906010352 | 17 | 113 | 1.6 | 3.2 | 0.00 | 0.00 | 0.00 | 87 | 1019.4 |
| 20260906004824 | 17 | 130 | 0.0 | 1.6 | 0.00 | 0.00 | 0.00 | 85 | 1019.5 |
| 20260906003319 | 18 | 130 | 0.0 | 1.6 | 0.00 | 0.00 | 0.00 | 84 | 1019.4 |
| 20260906001816 | 18 | 122 | 0.0 | 1.6 | 0.00 | 0.00 | 0.00 | 82 | 1019.4 |
| 20260906000328 | 19 | 128 | 0.0 | 3.2 | 0.00 | 0.00 | 0.00 | 80 | 1019.5 |
| 20260905234816 | 20 | 102 | 1.6 | 6.4 | 0.00 | 0.00 | 0.00 | 78 | 1019.4 |
| 20260905233316 | 20 | 109 | 3.2 | 6.4 | 0.00 | 0.00 | 0.00 | 77 | 1019.3 |
| 20260905231830 | 21 | 103 | 3.2 | 9.7 | 0.00 | 0.00 | 0.00 | 75 | 1019.6 |
| 20260905230350 | 21 | 83 | 4.8 | 8.0 | 0.00 | 0.00 | 0.00 | 73 | 1019.6 |
| 20260905224820 | 22 | 106 | 3.2 | 8.0 | 0.00 | 0.00 | 0.00 | 71 | 1019.6 |
| 20260905223326 | 22 | 152 | 4.8 | 9.7 | 0.00 | 0.00 | 0.00 | 69 | 1019.6 |
| 20260905221826 | 22 | 96 | 3.2 | 8.0 | 0.00 | 0.00 | 0.00 | 68 | 1019.5 |
| 20260905220329 | 22 | 148 | 3.2 | 11.3 | 0.00 | 0.00 | 0.00 | 68 | 1019.4 |
| 20260905214820 | 23 | 173 | 4.8 | 9.7 | 0.00 | 0.00 | 0.00 | 68 | 1019.6 |
| 20260905213332 | 23 | 166 | 3.2 | 9.7 | 0.00 | 0.00 | 0.00 | 67 | 1019.3 |
| 20260905211831 | 22 | 83 | 8.0 | 12.9 | 0.00 | 0.00 | 0.00 | 65 | 1019.4 |
| 20260905210331 | 22 | 73 | 3.2 | 14.5 | 0.00 | 0.00 | 0.00 | 67 | 1019.4 |
| 20260905204825 | 22 | 157 | 3.2 | 14.5 | 0.00 | 0.00 | 0.00 | 66 | 1019.6 |
| 20260905203317 | 22 | 77 | 4.8 | 12.9 | 0.00 | 0.00 | 0.00 | 67 | 1019.7 |
| 20260905201814 | 22 | 86 | 3.2 | 12.9 | 0.00 | 0.00 | 0.00 | 68 | 1019.7 |
| 20260905200330 | 22 | 127 | 6.4 | 16.1 | 0.00 | 0.00 | 0.00 | 67 | 1019.6 |
| 20260905194841 | 22 | 122 | 6.4 | 14.5 | 0.00 | 0.00 | 0.00 | 66 | 1019.5 |
| 20260905193345 | 22 | 118 | 4.8 | 11.3 | 0.00 | 0.00 | 0.00 | 67 | 1019.7 |
| 20260905191821 | 22 | 161 | 6.4 | 12.9 | 0.00 | 0.00 | 0.00 | 66 | 1019.9 |